When you browse on this site, cookies collect data to enhance your experience and personalize the content and advertising you see.
Visit our Privacy Policy to learn more. By continuing to use the site, you agree to this use of cookies and data.
  • en Suisse
  • Liste des pays
  • À 7 jours
  • Température de l'eau
  • Carte météo
  • Widgets météo
  • user-avatar
    Se connecter

    Météo par heure à Lewis

    Ce jour, 24 Janvier, Vendredi

    Heure Température Précipitation Vent Pression Humidité
    00:00 +4°C° 0 mm 8 m/s 753 mmHg 78%
    01:00 +4°C° 0 mm 8 m/s 753 mmHg 77%
    02:00 +4°C° 0 mm 8 m/s 753 mmHg 77%
    03:00 +4°C° 0 mm 8 m/s 753 mmHg 76%
    04:00 +4°C° 0 mm 8 m/s 753 mmHg 77%
    05:00 +4°C° 0 mm 8 m/s 753 mmHg 77%
    06:00 +4°C° 0 mm 7 m/s 752 mmHg 79%
    07:00 +4°C° 0 mm 7 m/s 752 mmHg 80%
    08:00 +4°C° 0 mm 7 m/s 753 mmHg 80%
    09:00 +4°C° 0 mm 7 m/s 753 mmHg 80%
    10:00 +4°C° 0 mm 7 m/s 753 mmHg 79%
    11:00 +4°C° 0 mm 7 m/s 753 mmHg 78%
    12:00 +5°C° 0 mm 7 m/s 753 mmHg 76%
    13:00 +5°C° 0 mm 6 m/s 752 mmHg 78%
    14:00 +5°C° 0 mm 6 m/s 751 mmHg 80%
    15:00 +5°C° 0 mm 6 m/s 751 mmHg 83%
    16:00 +5°C° 0.3 mm 6 m/s 750 mmHg 86%
    17:00 +4°C° 0.3 mm 6 m/s 750 mmHg 90%
    18:00 +4°C° 0.3 mm 6 m/s 750 mmHg 93%
    19:00 +5°C° 0.2 mm 7 m/s 749 mmHg 93%
    20:00 +6°C° 0.2 mm 8 m/s 749 mmHg 94%
    21:00 +6°C° 0.2 mm 9 m/s 748 mmHg 94%
    22:00 +6°C° 0 mm 9 m/s 748 mmHg 92%
    23:00 +6°C° 0 mm 10 m/s 747 mmHg 90%

    Demain, 25 Janvier, Samedi

    Heure Température Précipitation Vent Pression Humidité
    00:00 +6°C° 0 mm 11 m/s 746 mmHg 88%
    01:00 +5°C° 0 mm 12 m/s 746 mmHg 86%
    02:00 +5°C° 0 mm 12 m/s 745 mmHg 85%
    03:00 +5°C° 0 mm 13 m/s 744 mmHg 83%
    04:00 +5°C° 0.1 mm 13 m/s 744 mmHg 83%
    05:00 +5°C° 0.1 mm 14 m/s 743 mmHg 83%
    06:00 +5°C° 0.1 mm 14 m/s 742 mmHg 83%
    07:00 +5°C° 0 mm 14 m/s 742 mmHg 82%
    08:00 +5°C° 0 mm 14 m/s 742 mmHg 81%
    09:00 +5°C° 0 mm 15 m/s 742 mmHg 80%
    10:00 +5°C° 0.1 mm 15 m/s 741 mmHg 82%
    11:00 +5°C° 0.1 mm 14 m/s 741 mmHg 83%
    12:00 +5°C° 0.1 mm 14 m/s 741 mmHg 85%
    13:00 +5°C° 0.2 mm 14 m/s 741 mmHg 85%
    14:00 +5°C° 0.2 mm 14 m/s 740 mmHg 86%
    15:00 +5°C° 0.2 mm 13 m/s 740 mmHg 87%
    16:00 +5°C° 0.6 mm 13 m/s 740 mmHg 87%
    17:00 +5°C° 0.6 mm 13 m/s 739 mmHg 87%
    18:00 +5°C° 0.6 mm 13 m/s 739 mmHg 87%
    19:00 +5°C° 0.4 mm 13 m/s 739 mmHg 86%
    20:00 +5°C° 0.4 mm 13 m/s 738 mmHg 86%
    21:00 +4°C° 0.4 mm 13 m/s 738 mmHg 85%
    22:00 +4°C° 0.3 mm 13 m/s 737 mmHg 85%
    23:00 +4°C° 0.3 mm 13 m/s 737 mmHg 84%

    Après-demain, 26 Janvier, Dimanche

    Heure Température Précipitation Vent Pression Humidité
    00:00 +4°C° 0.3 mm 13 m/s 736 mmHg 84%
    01:00 +4°C° 0.6 mm 14 m/s 735 mmHg 85%
    02:00 +4°C° 0.6 mm 14 m/s 734 mmHg 86%
    03:00 +4°C° 0.6 mm 14 m/s 733 mmHg 87%
    04:00 +4°C° 0.9 mm 13 m/s 733 mmHg 86%
    05:00 +4°C° 0.9 mm 12 m/s 733 mmHg 84%
    06:00 +4°C° 0.9 mm 11 m/s 732 mmHg 83%
    07:00 +3°C° 0.4 mm 10 m/s 733 mmHg 79%
    08:00 +2°C° 0.4 mm 10 m/s 734 mmHg 75%
    09:00 +1°C° 0.4 mm 9 m/s 734 mmHg 71%
    10:00 +1°C° 0.1 mm 9 m/s 735 mmHg 69%
    11:00 +1°C° 0.1 mm 9 m/s 735 mmHg 67%
    12:00 +1°C° 0.1 mm 8 m/s 736 mmHg 65%
    13:00 +1°C° 0.1 mm 8 m/s 736 mmHg 65%
    14:00 +1°C° 0.1 mm 8 m/s 736 mmHg 66%
    15:00 0°C° 0.1 mm 8 m/s 736 mmHg 67%
    16:00 0°C° 0.1 mm 8 m/s 735 mmHg 68%
    17:00 -1°C° 0.1 mm 8 m/s 735 mmHg 69%
    18:00 -1°C° 0.1 mm 7 m/s 735 mmHg 71%
    19:00 -1°C° 0.1 mm 8 m/s 735 mmHg 71%
    20:00 -1°C° 0.1 mm 8 m/s 735 mmHg 71%
    21:00 -1°C° 0.1 mm 8 m/s 735 mmHg 72%
    22:00 -1°C° 0.1 mm 9 m/s 734 mmHg 73%
    23:00 -1°C° 0.1 mm 9 m/s 733 mmHg 74%

    27 Janvier, Lundi

    Heure Température Précipitation Vent Pression Humidité
    00:00 -2°C° 0.1 mm 10 m/s 733 mmHg 75%
    01:00 -1°C° 0 mm 9 m/s 732 mmHg 76%
    02:00 -1°C° 0 mm 9 m/s 731 mmHg 77%
    03:00 -1°C° 0 mm 9 m/s 730 mmHg 77%
    04:00 -2°C° 0.7 mm 7 m/s 730 mmHg 84%
    05:00 -1°C° 0.7 mm 5 m/s 729 mmHg 91%
    06:00 -1°C° 0.7 mm 4 m/s 728 mmHg 98%
    07:00 -1°C° 0.4 mm 4 m/s 728 mmHg 96%
    08:00 -1°C° 0.4 mm 5 m/s 728 mmHg 94%
    09:00 -2°C° 0.4 mm 6 m/s 727 mmHg 92%
    10:00 -2°C° 0.2 mm 6 m/s 727 mmHg 85%
    11:00 -1°C° 0.2 mm 7 m/s 727 mmHg 79%
    12:00 0°C° 0.2 mm 8 m/s 727 mmHg 73%
    13:00 0°C° 0.2 mm 8 m/s 727 mmHg 72%
    14:00 0°C° 0.2 mm 7 m/s 726 mmHg 71%
    15:00 0°C° 0.2 mm 7 m/s 726 mmHg 69%
    16:00 -1°C° 0.3 mm 7 m/s 726 mmHg 71%
    17:00 -1°C° 0.3 mm 7 m/s 726 mmHg 73%
    18:00 -1°C° 0.3 mm 8 m/s 726 mmHg 75%
    19:00 -1°C° 0.3 mm 8 m/s 726 mmHg 75%
    20:00 -1°C° 0.3 mm 9 m/s 726 mmHg 75%
    21:00 -1°C° 0.3 mm 9 m/s 726 mmHg 75%
    22:00 -2°C° 0.2 mm 8 m/s 726 mmHg 75%
    23:00 -2°C° 0.2 mm 8 m/s 726 mmHg 75%

    28 Janvier, Mardi

    Heure Température Précipitation Vent Pression Humidité
    00:00 -3°C° 0.2 mm 7 m/s 726 mmHg 75%
    01:00 -3°C° 0 mm 7 m/s 725 mmHg 77%
    02:00 -2°C° 0 mm 7 m/s 725 mmHg 79%
    03:00 -2°C° 0 mm 8 m/s 725 mmHg 81%
    04:00 -2°C° 0.2 mm 8 m/s 724 mmHg 82%
    05:00 -1°C° 0.2 mm 8 m/s 724 mmHg 84%
    06:00 -1°C° 0.2 mm 7 m/s 724 mmHg 85%
    07:00 -1°C° 0.3 mm 7 m/s 724 mmHg 84%
    08:00 -1°C° 0.3 mm 7 m/s 724 mmHg 83%
    09:00 -1°C° 0.3 mm 6 m/s 725 mmHg 81%
    10:00 0°C° 0.4 mm 7 m/s 725 mmHg 79%
    11:00 0°C° 0.4 mm 8 m/s 725 mmHg 77%
    12:00 +1°C° 0.4 mm 8 m/s 726 mmHg 75%
    13:00 +1°C° 0 mm 8 m/s 726 mmHg 75%
    14:00 +2°C° 0 mm 7 m/s 726 mmHg 75%
    15:00 +2°C° 0 mm 7 m/s 726 mmHg 75%
    16:00 +1°C° 0 mm 6 m/s 727 mmHg 76%
    17:00 -1°C° 0 mm 6 m/s 727 mmHg 78%
    18:00 -2°C° 0 mm 6 m/s 727 mmHg 80%
    19:00 -1°C° 0.1 mm 5 m/s 728 mmHg 82%
    20:00 -1°C° 0.1 mm 5 m/s 728 mmHg 85%
    21:00 -1°C° 0.1 mm 5 m/s 728 mmHg 87%
    22:00 0°C° 0.1 mm 5 m/s 729 mmHg 88%
    23:00 0°C° 0.1 mm 5 m/s 729 mmHg 88%

    29 Janvier, Mercredi

    Heure Température Précipitation Vent Pression Humidité
    00:00 0°C° 0.1 mm 5 m/s 729 mmHg 89%
    01:00 -1°C° 0.3 mm 6 m/s 730 mmHg 85%
    02:00 +1°C° 0.3 mm 6 m/s 730 mmHg 81%
    03:00 0°C° 0.3 mm 7 m/s 730 mmHg 78%
    04:00 -1°C° 0.1 mm 7 m/s 730 mmHg 78%
    05:00 -1°C° 0.1 mm 6 m/s 730 mmHg 78%
    06:00 -1°C° 0.1 mm 6 m/s 730 mmHg 78%
    07:00 -1°C° 0.2 mm 6 m/s 730 mmHg 77%
    08:00 0°C° 0.2 mm 7 m/s 730 mmHg 77%
    09:00 0°C° 0.2 mm 8 m/s 731 mmHg 76%
    10:00 +1°C° 0.2 mm 8 m/s 731 mmHg 74%
    11:00 +1°C° 0.2 mm 9 m/s 731 mmHg 73%
    12:00 +2°C° 0.2 mm 10 m/s 731 mmHg 71%
    13:00 +2°C° 0.4 mm 11 m/s 732 mmHg 72%
    14:00 +2°C° 0.4 mm 11 m/s 732 mmHg 73%
    15:00 +2°C° 0.4 mm 12 m/s 732 mmHg 73%
    16:00 +2°C° 0.3 mm 12 m/s 733 mmHg 74%
    17:00 +2°C° 0.3 mm 11 m/s 733 mmHg 75%
    18:00 +2°C° 0.3 mm 11 m/s 734 mmHg 76%
    19:00 +2°C° 0.2 mm 10 m/s 734 mmHg 77%
    20:00 +1°C° 0.2 mm 9 m/s 735 mmHg 78%
    21:00 +1°C° 0.2 mm 8 m/s 736 mmHg 79%
    22:00 +1°C° 0.1 mm 8 m/s 736 mmHg 80%
    23:00 +2°C° 0.1 mm 7 m/s 737 mmHg 81%
    Voir plus